Location: Colorado Springs
(38.8340°N, 104.8210°W)
Time: 12:06:28
(UTC-06:00)

OTV 5 (USA 277) - Pass Details

Date: 14 October 2017
Orbit: 404 x 417 km, 43.0° (Epoch: 07 September)

Event Time Altitude Azimuth Distance (km) Brightness Sun altitude
Rises 20:42:04 0° 286° (WNW) 2,355 ? -28.0°
Reaches altitude 10° 20:44:15 10° 294° (WNW) 1,491 ? -28.4°
Enters shadow 20:45:15 17° 302° (WNW) 1,122 ? -28.6°
